Charlottesville, VA

8:43 PM EDT on October 22, 2019 (GMT -0400)
Charlottesville-Albemarle

Weather History for KCHO - August, 2019

Change the Weather History Date:

Sunday, August 25, 2019

  Actual Average Record
Temperature  
Mean Temperature 67 °F 73 °F  
Max Temperature 79 °F 84 °F 98 °F (1998)
Min Temperature 55 °F 62 °F 51 °F (1942)
Degree Days  
Heating Degree Days 0 0  
Month to date heating degree days 0 0  
Since 1 June heating degree days 0 12  
Since 1 July heating degree days 0 1  
Cooling Degree Days 2 8  
Month to date cooling degree days 339 234  
Year to date cooling degree days 1407 864  
Since 1 June cooling degree days 1121 778  
Growing Degree Days 17 (Base 50)    
Moisture  
Dew Point 55 °F    
Average Humidity 67    
Maximum Humidity 93    
Minimum Humidity 42    
Precipitation  
Precipitation 0.00 in 0.11 in 1.37 in (2012)
Month to date precipitation 2.65 3.07  
Year to date precipitation 27.95 27.59  
Sea Level Pressure  
Sea Level Pressure 30.18 in    
Wind  
Wind Speed 3 mph ()    
Max Wind Speed 16 mph    
Max Gust Speed 21 mph    
Visibility 10.0 miles    
Events      
T = Trace of Precipitation, MM = Missing Value Source: Averaged Metar Reports

Daily Weather History Graph

Daily Weather History Graph

Search for Another Location

Airport or City:

Astronomy

Aug. 25, 2019 Rise Set
Actual Time 6:37 AM EDT 7:53 PM EDT
Civil Twilight 6:09 AM EDT 8:21 PM EDT
Nautical Twilight 5:36 AM EDT 8:54 PM EDT
Astronomical Twilight 5:02 AM EDT 9:28 PM EDT
Moon 1:13 AM EDT (8/25) 4:09 PM EDT (8/25)
Length of Visible Light 14h 11m
Length of Day
13h 16m
Waning Crescent, 29% of the Moon is Illuminated
Aug 25
Waning Crescent
Aug 30
New
Sep 5
First Quarter
Sep 14
Full
Sep 21
Last Quarter

Hourly Weather History & Observations

Time (EDT) Temp. Dew Point Humidity Pressure Visibility Wind Dir Wind Speed Gust Speed Precip Events Conditions
12:53 AM 60.1 °F 54.0 °F 80% 30.21 in 10.0 mi Calm Calm - N/A   Clear
1:53 AM 60.1 °F 55.0 °F 83% 30.19 in 10.0 mi Calm Calm - N/A   Clear
2:53 AM 57.9 °F 54.0 °F 87% 30.18 in 10.0 mi Calm Calm - N/A   Clear
3:53 AM 57.9 °F 54.0 °F 87% 30.18 in 10.0 mi Calm Calm - N/A   Partly Cloudy
4:53 AM 57.9 °F 54.0 °F 87% 30.18 in 10.0 mi Calm Calm - N/A   Clear
5:53 AM 57.9 °F 53.1 °F 84% 30.18 in 10.0 mi Calm Calm - N/A   Clear
6:53 AM 55.9 °F 53.1 °F 90% 30.19 in 10.0 mi Calm Calm - N/A   Clear
7:53 AM 63.0 °F 55.9 °F 78% 30.20 in 10.0 mi Calm Calm - N/A   Scattered Clouds
8:53 AM 64.0 °F 55.0 °F 73% 30.21 in 10.0 mi Calm Calm - N/A   Overcast
9:53 AM 68.0 °F 57.0 °F 68% 30.22 in 10.0 mi ENE 4.6 mph - N/A   Overcast
10:53 AM 71.1 °F 55.9 °F 59% 30.22 in 10.0 mi ENE 6.9 mph - N/A   Overcast
11:53 AM 75.0 °F 54.0 °F 48% 30.20 in 10.0 mi NNE 9.2 mph 18.4 mph N/A   Partly Cloudy
12:53 PM 75.9 °F 53.1 °F 45% 30.19 in 10.0 mi NE 12.7 mph 17.3 mph N/A   Partly Cloudy
1:53 PM 78.1 °F 53.1 °F 42% 30.17 in 10.0 mi NE 12.7 mph - N/A   Mostly Cloudy
2:53 PM 75.9 °F 53.1 °F 45% 30.16 in 10.0 mi NE 10.4 mph 20.7 mph N/A   Mostly Cloudy
3:53 PM 78.1 °F 55.0 °F 45% 30.15 in 10.0 mi NE 11.5 mph - N/A   Partly Cloudy
4:53 PM 77.0 °F 55.0 °F 47% 30.15 in 10.0 mi NE 12.7 mph - N/A   Mostly Cloudy
5:53 PM 75.0 °F 55.9 °F 51% 30.14 in 10.0 mi NE 8.1 mph - N/A   Overcast
6:53 PM 73.0 °F 57.9 °F 59% 30.14 in 10.0 mi NNE 4.6 mph - N/A   Overcast
7:53 PM 72.0 °F 57.0 °F 59% 30.14 in 10.0 mi ENE 5.8 mph - N/A   Overcast
9:53 PM 66.9 °F 57.0 °F 70% 30.17 in 10.0 mi Calm Calm - N/A   Scattered Clouds
10:53 PM 64.9 °F 57.9 °F 78% 30.18 in 10.0 mi Calm Calm - N/A   Partly Cloudy
11:53 PM 64.0 °F 57.9 °F 80% 30.17 in 10.0 mi North 3.5 mph - N/A   Mostly Cloudy